AV194 Weather Reports


time (UTC)temp
C
wind
direction
speed
KPH
gust
KPH
rain 1hr
cm
rain 24hr
cm
rain mn
cm
humidity
%
barometer
mb
20260507152025 15 91 3.2 11.3 0.00 0.86 0.03 50 1006.7
20260507151521 15 5 3.2 12.9 0.00 0.86 0.03 50 1006.8
20260507151022 14 202 4.8 12.9 0.00 0.86 0.03 52 1006.8
20260507150521 14 5 3.2 8.0 0.00 0.86 0.03 58 1006.8
20260507150020 14 344 1.6 11.3 0.00 0.86 0.03 59 1006.8
20260507145519 14 284 3.2 11.3 0.00 0.86 0.03 59 1006.7
20260507145018 13 187 0.0 9.7 0.00 0.86 0.03 63 1006.9
20260507144518 13 141 3.2 9.7 0.00 0.86 0.03 61 1006.9
20260507144018 13 248 4.8 9.7 0.00 0.86 0.03 64 1007.0
20260507143517 13 263 1.6 9.7 0.00 0.86 0.03 62 1006.9
20260507143019 13 236 4.8 11.3 0.00 0.86 0.03 61 1006.9
20260507142517 13 242 3.2 8.0 0.00 0.86 0.03 63 1006.8
20260507142016 13 321 1.6 9.7 0.00 0.86 0.03 64 1006.9
20260507141516 13 5 1.6 9.7 0.00 0.86 0.03 64 1006.8
20260507141016 13 317 0.0 8.0 0.00 0.86 0.03 64 1006.8
20260507140515 13 273 0.0 8.0 0.00 0.86 0.03 67 1006.8
20260507140014 13 180 3.2 8.0 0.00 0.86 0.03 67 1006.9
20260507135519 13 23 1.6 8.0 0.00 0.86 0.03 61 1006.8
20260507135017 14 310 1.6 8.0 0.00 0.86 0.03 61 1006.8
20260507134513 13 171 0.0 9.7 0.00 0.86 0.03 67 1006.8
20260507134015 13 240 3.2 9.7 0.00 0.86 0.03 63 1006.8
20260507133511 13 323 1.6 8.0 0.00 0.86 0.03 63 1006.8
20260507133009 13 25 3.2 9.7 0.00 0.86 0.03 62 1006.8
20260507132512 13 307 3.2 11.3 0.00 0.86 0.03 61 1006.9
20260507132009 13 5 4.8 11.3 0.00 0.86 0.03 62 1007.0
20260507131510 13 311 1.6 9.7 0.00 0.86 0.03 64 1007.1
20260507131008 13 347 3.2 8.0 0.00 0.86 0.03 64 1007.2
20260507130502 13 18 1.6 8.0 0.00 0.86 0.03 65 1007.2
20260507130001 13 236 1.6 8.0 0.00 0.86 0.03 69 1007.2
20260507125603 13 11 3.2 8.0 0.00 0.86 0.03 66 1007.2
20260507125100 12 229 0.0 8.0 0.00 0.86 0.03 68 1007.1
20260507124557 12 327 1.6 8.0 0.00 0.86 0.03 70 1007.1
20260507124055 12 309 3.2 8.0 0.00 0.86 0.03 71 1007.1
20260507123553 12 235 3.2 11.3 0.00 0.86 0.03 69 1007.0
20260507123052 12 346 3.2 11.3 0.00 0.86 0.03 72 1007.2
20260507122550 12 5 3.2 11.3 0.00 0.86 0.03 71 1007.2
20260507122049 12 252 3.2 9.7 0.00 0.86 0.03 74 1007.2
20260507121558 11 63 0.0 8.0 0.00 0.86 0.03 75 1007.3
20260507121046 11 5 1.6 8.0 0.00 0.86 0.03 74 1007.4
20260507120544 11 23 1.6 8.0 0.00 0.86 0.03 76 1007.5
20260507120045 11 329 1.6 8.0 0.00 0.86 0.03 77 1007.5
20260507115541 11 268 1.6 6.4 0.00 0.86 0.03 79 1007.5
20260507115040 10 265 1.6 8.0 0.00 0.86 0.03 78 1007.5
20260507114538 10 299 1.6 8.0 0.00 0.86 0.03 79 1007.4
20260507114037 10 20 1.6 6.4 0.00 0.86 0.03 80 1007.4
20260507113537 10 292 1.6 6.4 0.00 0.86 0.03 81 1007.2
20260507113033 10 68 0.0 6.4 0.00 0.86 0.03 82 1007.3
20260507112532 9 19 1.6 6.4 0.00 0.86 0.03 82 1007.1
20260507112031 9 275 0.0 6.4 0.00 0.86 0.03 84 1007.2
20260507111529 9 278 1.6 6.4 0.00 0.86 0.03 84 1007.2
20260507111029 9 294 0.0 3.2 0.00 0.86 0.03 83 1007.3
20260507110528 8 355 0.0 3.2 0.00 0.86 0.03 84 1007.2
20260507110026 8 326 0.0 1.6 0.00 0.86 0.03 84 1007.2
20260507105525 8 326 0.0 6.4 0.00 0.86 0.03 84 1006.9
20260507105025 8 326 0.0 6.4 0.00 0.86 0.03 84 1006.9
20260507104525 8 300 0.0 11.3 0.00 0.86 0.03 85 1006.8
20260507104025 8 310 3.2 11.3 0.00 0.86 0.03 85 1006.6
20260507103523 8 355 1.6 6.4 0.00 0.86 0.03 85 1006.6
20260507103022 8 324 1.6 3.2 0.00 0.86 0.03 86 1006.6
20260507102522 8 277 0.0 3.2 0.00 0.86 0.03 87 1006.7
20260507102022 8 24 0.0 6.4 0.00 0.86 0.03 86 1006.6
20260507101520 8 248 0.0 6.4 0.00 0.86 0.03 86 1006.6
20260507101018 8 43 0.0 6.4 0.00 0.86 0.03 87 1006.7
20260507100518 8 325 0.0 3.2 0.00 0.86 0.03 86 1006.6
20260507100020 8 321 0.0 3.2 0.00 0.86 0.03 87 1006.6
20260507095519 8 321 0.0 3.2 0.00 0.86 0.03 87 1006.5
20260507095016 8 318 0.0 3.2 0.00 0.86 0.03 88 1006.7
20260507094517 8 315 0.0 1.6 0.00 0.86 0.03 88 1006.8
20260507094015 8 340 0.0 1.6 0.00 0.86 0.03 88 1006.9
20260507093515 8 332 0.0 6.4 0.00 0.86 0.03 88 1006.8
20260507093016 8 325 0.0 3.2 0.00 0.86 0.03 89 1006.6
20260507092515 8 321 0.0 3.2 0.00 0.86 0.03 89 1006.7
20260507092014 8 286 0.0 1.6 0.00 0.86 0.03 90 1006.6
20260507091516 8 290 0.0 3.2 0.00 0.86 0.03 90 1006.6
20260507091014 8 313 0.0 3.2 0.00 0.86 0.03 91 1006.7
20260507090515 8 301 0.0 1.6 0.00 0.86 0.03 91 1006.8
20260507090020 8 274 0.0 6.4 0.00 0.86 0.03 92 1006.9
20260507085512 8 323 1.6 4.8 0.00 0.86 0.03 92 1006.7
20260507085011 8 260 0.0 3.2 0.00 0.86 0.03 92 1007.0
20260507084513 8 260 0.0 3.2 0.00 0.86 0.03 92 1007.0
20260507084009 8 273 0.0 0.0 0.03 0.86 0.03 92 1006.6
20260507083510 8 273 0.0 1.6 0.03 0.86 0.03 92 1006.6
20260507083008 8 273 0.0 1.6 0.03 0.86 0.03 92 1006.5
20260507082509 9 273 0.0 3.2 0.03 0.86 0.03 92 1006.4
20260507082007 9 273 0.0 3.2 0.03 0.86 0.03 91 1006.5
20260507081511 9 270 0.0 3.2 0.03 0.86 0.03 91 1006.3
20260507081006 9 267 0.0 3.2 0.03 0.86 0.03 91 1006.3
20260507080505 9 286 0.0 3.2 0.03 0.86 0.03 91 1006.4
20260507080007 9 294 0.0 3.2 0.03 0.86 0.03 90 1006.1
20260507075507 9 294 0.0 3.2 0.03 0.86 0.03 90 1006.2
20260507075004 10 268 0.0 3.2 0.03 0.86 0.03 89 1006.3
20260507074502 10 327 0.0 3.2 0.03 0.86 0.03 89 1006.4
20260507074003 10 290 1.6 3.2 0.00 0.84 0.00 89 1006.7
20260507073600 10 277 1.6 3.2 0.00 0.84 0.00 88 1006.4
20260507073101 10 311 1.6 3.2 0.00 0.84 0.00 88 1006.4
20260507072600 10 289 0.0 6.4 0.00 0.84 0.00 88 1006.4
20260507072100 10 323 1.6 3.2 0.00 0.84 0.00 89 1006.1
20260507071559 10 241 0.0 3.2 0.00 0.84 0.00 89 1005.9
20260507071058 10 337 0.0 3.2 0.00 0.84 0.00 89 1006.1
20260507070558 10 346 0.0 3.2 0.00 0.84 0.00 89 1005.9
20260507070057 10 305 0.0 3.2 0.00 0.84 0.00 89 1005.8
20260507065556 10 305 0.0 1.6 0.00 0.84 0.00 88 1006.0
20260507065057 10 305 0.0 1.6 0.00 0.84 0.00 88 1006.1
20260507064556 10 302 0.0 3.2 0.00 0.84 0.00 88 1005.9
20260507064056 10 302 0.0 3.2 0.00 0.84 0.00 88 1005.8
20260507063555 10 323 0.0 6.4 0.00 0.84 0.00 89 1005.7
20260507063056 10 249 0.0 6.4 0.00 0.84 0.00 89 1005.8
20260507062554 10 240 1.6 8.0 0.00 0.84 0.00 90 1005.8
20260507062054 10 299 1.6 8.0 0.00 0.84 0.00 90 1005.4
20260507061553 10 319 1.6 6.4 0.00 0.84 0.00 90 1005.5
20260507061051 10 331 0.0 6.4 0.00 0.84 0.00 90 1005.6
20260507060551 10 323 0.0 1.6 0.00 0.84 0.00 90 1005.9
20260507060050 10 332 0.0 3.2 0.00 0.84 0.00 90 1005.8
20260507055550 10 332 0.0 3.2 0.00 0.84 0.00 90 1005.8
20260507055052 10 333 0.0 3.2 0.00 0.84 0.00 90 1006.0
20260507054626 10 344 0.0 6.4 0.00 0.84 0.00 90 1006.2
20260507054049 10 297 0.0 6.4 0.00 0.84 0.00 90 1006.4
20260507053550 10 236 0.0 6.4 0.00 0.84 0.00 91 1006.2
20260507053052 10 268 1.6 4.8 0.00 0.84 0.00 91 1006.2
20260507052546 10 293 0.0 8.0 0.00 0.84 0.00 91 1006.2
20260507052046 11 292 0.0 8.0 0.00 0.84 0.00 92 1006.3
20260507051546 11 247 0.0 3.2 0.00 0.84 0.00 92 1006.2
20260507051050 11 323 0.0 3.2 0.00 0.84 0.00 92 1006.2
20260507050544 11 317 1.6 3.2 0.00 0.84 0.00 92 1006.2
20260507050052 11 327 0.0 3.2 0.00 0.84 0.00 92 1006.2
20260507045544 11 327 0.0 3.2 0.00 0.84 0.00 92 1006.1
20260507045043 11 327 0.0 6.4 0.00 0.84 0.00 92 1006.0
20260507044549 11 355 1.6 8.0 0.00 0.84 0.00 92 1006.0
20260507044041 11 40 1.6 8.0 0.00 0.84 0.00 93 1005.8
20260507043541 11 310 0.0 3.2 0.00 0.84 0.00 92 1006.1
20260507043044 11 173 0.0 3.2 0.00 0.84 0.00 93 1006.2
20260507042540 11 299 0.0 6.4 0.00 0.84 0.00 93 1006.1
20260507042038 11 326 1.6 6.4 0.00 0.84 0.00 93 1006.1
20260507041541 11 304 0.0 6.4 0.00 0.84 0.00 93 1006.2
20260507041037 11 296 0.0 3.2 0.00 0.84 0.00 94 1006.3
20260507040536 12 287 0.0 3.2 0.00 0.84 0.00 94 1006.2
20260507040037 12 257 0.0 3.2 0.00 0.84 0.84 94 1006.1
20260507035534 12 284 0.0 6.4 0.00 0.84 0.84 94 1005.9
20260507035033 12 332 1.6 6.4 0.00 0.84 0.84 94 1005.8
20260507034533 12 316 1.6 4.8 0.00 0.84 0.84 94 1005.6
20260507034032 12 318 1.6 6.4 0.00 0.84 0.84 95 1005.7
20260507033532 12 311 1.6 4.8 0.00 0.84 0.84 95 1005.5
20260507033033 12 302 1.6 6.4 0.00 0.84 0.84 95 1005.4
20260507032530 12 319 1.6 9.7 0.00 0.84 0.84 95 1005.3
20260507032029 12 338 4.8 9.7 0.00 0.84 0.84 95 1005.4
20260507031529 13 360 1.6 4.8 0.00 0.84 0.84 96 1005.4
20260507031032 13 331 0.0 6.4 0.00 0.84 0.84 96 1005.1
20260507030529 13 348 1.6 4.8 0.00 0.84 0.84 95 1005.1
20260507030027 13 16 1.6 8.0 0.00 0.84 0.84 95 1005.0
20260507025526 13 98 1.6 8.0 0.00 0.84 0.84 96 1005.0
20260507025026 13 286 0.0 3.2 0.00 0.84 0.84 96 1005.1
20260507024526 14 293 0.0 6.4 0.00 0.84 0.84 96 1005.1
20260507024025 14 328 0.0 6.4 0.00 0.84 0.84 96 1004.9
20260507023526 14 338 0.0 6.4 0.00 0.84 0.84 96 1004.9
20260507023028 14 300 1.6 8.0 0.00 0.84 0.84 95 1004.9
20260507022530 15 248 1.6 12.9 0.00 0.84 0.84 96 1004.9
20260507022027 15 298 1.6 12.9 0.00 0.84 0.84 96 1004.7
20260507021524 15 218 0.0 1.6 0.00 0.84 0.84 96 1004.4
20260507021024 15 215 0.0 3.2 0.00 0.84 0.84 96 1004.3
20260507020524 15 215 0.0 3.2 0.00 0.84 0.84 96 1004.3
20260507020024 15 206 0.0 1.6 0.00 0.84 0.84 96 1004.3
20260507015525 15 206 0.0 3.2 0.00 0.84 0.84 96 1004.4
20260507015023 15 206 0.0 3.2 0.00 0.84 0.84 96 1004.3
20260507014533 15 206 0.0 3.2 0.00 0.84 0.84 96 1004.2
20260507014023 15 206 0.0 3.2 0.00 0.84 0.84 96 1004.2
20260507013522 15 206 0.0 3.2 0.00 0.84 0.84 96 1004.2
20260507013022 15 193 0.0 3.2 0.00 0.84 0.84 96 1004.3
20260507012522 15 212 0.0 3.2 0.00 0.84 0.84 96 1004.2
20260507012024 15 212 0.0 3.2 0.00 0.84 0.84 96 1004.2
20260507011522 15 212 0.0 4.8 0.00 0.84 0.84 96 1004.3
20260507011023 15 172 1.6 3.2 0.00 0.84 0.84 96 1004.3
20260507010522 15 184 0.0 3.2 0.00 0.84 0.84 96 1004.2
20260507010021 15 205 0.0 4.8 0.00 0.84 0.84 96 1004.2
20260507005522 15 202 0.0 6.4 0.00 0.84 0.84 96 1004.3
20260507005020 15 202 1.6 6.4 0.00 0.84 0.84 96 1004.2
20260507004523 15 233 0.0 4.8 0.00 0.84 0.84 95 1004.2
20260507004023 15 205 1.6 6.4 0.00 0.84 0.84 95 1004.2
20260507003521 15 200 0.0 3.2 0.00 0.84 0.84 95 1004.0
20260507003021 15 237 1.6 4.8 0.00 0.84 0.84 95 1003.9
20260507002519 15 219 0.0 6.4 0.00 0.84 0.84 95 1003.9
20260507002021 15 174 1.6 8.0 0.00 0.84 0.84 95 1003.9
20260507001525 15 245 3.2 8.0 0.00 0.84 0.84 95 1004.0
20260507001020 15 171 1.6 8.0 0.00 0.84 0.84 95 1004.0
20260507000519 15 219 1.6 4.8 0.00 0.84 0.84 95 1003.9
20260507000030 15 229 1.6 6.4 0.03 0.84 0.84 95 1003.9
20260506235519 15 238 1.6 6.4 0.03 0.84 0.84 95 1003.9
20260506235017 15 215 1.6 6.4 0.05 0.84 0.84 95 1003.9
20260506234518 15 199 1.6 6.4 0.05 0.84 0.84 95 1003.9
20260506234018 15 222 1.6 6.4 0.05 0.84 0.84 95 1003.8
20260506233518 15 223 1.6 8.0 0.05 0.84 0.84 95 1003.8
20260506233017 15 244 3.2 8.0 0.05 0.84 0.84 95 1003.8
20260506232517 15 196 1.6 8.0 0.05 0.84 0.84 95 1003.8
20260506232016 15 196 3.2 8.0 0.05 0.84 0.84 95 1003.9
20260506231516 15 187 3.2 8.0 0.05 0.84 0.84 95 1003.9
20260506231018 15 155 3.2 9.7 0.05 0.84 0.84 95 1003.8
20260506230515 15 181 3.2 9.7 0.05 0.84 0.84 95 1003.9
20260506230017 15 232 1.6 8.0 0.03 0.81 0.81 95 1004.0
20260506225517 15 174 1.6 8.0 0.03 0.81 0.81 95 1004.0
20260506225014 15 230 1.6 6.4 0.00 0.79 0.79 95 1004.1
20260506224514 15 209 1.6 11.3 0.00 0.79 0.79 95 1004.1
20260506224015 15 225 4.8 11.3 0.00 0.79 0.79 95 1004.1
20260506223513 15 180 1.6 6.4 0.00 0.79 0.79 95 1004.1
20260506223013 15 171 1.6 6.4 0.00 0.79 0.79 95 1004.0
20260506222513 15 173 0.0 8.0 0.03 0.79 0.79 95 1004.1
20260506222013 15 193 0.0 8.0 0.03 0.79 0.79 95 1004.1
20260506221512 15 178 1.6 8.0 0.05 0.79 0.79 95 1004.1
20260506221017 15 181 1.6 9.7 0.05 0.79 0.79 95 1004.2
20260506220512 15 190 0.0 9.7 0.08 0.79 0.79 95 1004.2
20260506220019 15 183 1.6 8.0 0.08 0.79 0.79 95 1004.3
20260506215516 15 214 1.6 6.4 0.10 0.79 0.79 95 1004.3
20260506215010 15 217 0.0 6.4 0.10 0.79 0.79 95 1004.3
20260506214511 15 229 1.6 6.4 0.13 0.79 0.79 94 1004.3
20260506214009 15 311 1.6 8.0 0.13 0.79 0.79 94 1004.3
20260506213509 15 189 3.2 8.0 0.15 0.79 0.79 94 1004.2
20260506213127 15 215 0.0 8.0 0.15 0.79 0.79 94 1004.3
20260506212508 15 209 3.2 6.4 0.15 0.76 0.76 94 1004.3
20260506212008 15 188 1.6 6.4 0.15 0.76 0.76 94 1004.4
20260506211510 15 200 1.6 6.4 0.13 0.71 0.71 94 1004.4
20260506211007 16 252 1.6 8.0 0.13 0.71 0.71 94 1004.5
20260506210506 16 202 3.2 11.3 0.13 0.71 0.71 94 1004.5
20260506210009 16 230 3.2 11.3 0.15 0.71 0.71 94 1004.6
20260506205505 16 179 1.6 11.3 0.15 0.69 0.69 94 1004.6
20260506205005 16 200 3.2 12.9 0.15 0.69 0.69 94 1004.4
20260506204505 16 242 3.2 12.9 0.13 0.66 0.66 94 1004.6
20260506204004 16 115 3.2 8.0 0.13 0.66 0.66 94 1004.6
20260506203508 16 165 1.6 6.4 0.10 0.64 0.64 93 1004.6
20260506203007 16 206 1.6 11.3 0.08 0.61 0.61 94 1004.7
20260506202505 16 242 3.2 11.3 0.08 0.61 0.61 94 1004.6
20260506202004 16 208 3.2 9.7 0.08 0.61 0.61 94 1004.7
20260506201504 16 222 4.8 9.7 0.08 0.61 0.61 94 1004.7
20260506201003 16 166 3.2 8.0 0.05 0.58 0.58 94 1004.7
20260506200505 16 172 1.6 9.7 0.08 0.58 0.58 94 1004.8
20260506200004 16 224 4.8 9.7 0.05 0.56 0.56 94 1004.9
20260506195503 16 239 1.6 8.0 0.03 0.53 0.53 94 1005.0
20260506195003 16 208 1.6 6.4 0.03 0.53 0.53 94 1005.0
20260506194503 16 198 0.0 3.2 0.05 0.53 0.53 94 1005.0
20260506194003 16 263 0.0 3.2 0.05 0.53 0.53 94 1005.0
20260506193502 16 219 0.0 9.7 0.08 0.53 0.53 94 1005.0
20260506193002 16 213 1.6 9.7 0.08 0.53 0.53 94 1004.9
20260506192506 16 224 1.6 3.2 0.10 0.53 0.53 94 1004.9
20260506192002 16 218 1.6 9.7 0.13 0.53 0.53 94 1004.8
20260506191502 16 203 1.6 9.7 0.15 0.53 0.53 94 1004.7
20260506191002 16 226 1.6 6.4 0.18 0.51 0.51 94 1004.6
20260506190502 16 161 1.6 4.8 0.25 0.51 0.51 93 1004.6
20260506185559 16 182 0.0 6.4 0.33 0.51 0.51 93 1005.1
20260506185059 16 188 1.6 6.4 0.36 0.51 0.51 93 1005.0
20260506184559 16 185 0.0 6.4 0.33 0.48 0.48 93 1005.1
20260506184058 16 209 0.0 1.6 0.36 0.48 0.48 93 1005.1
20260506183558 16 202 0.0 1.6 0.38 0.46 0.46 93 1005.4
20260506183058 16 202 0.0 1.6 0.41 0.46 0.46 93 1005.5
20260506182557 16 202 0.0 3.2 0.41 0.43 0.43 93 1005.5
20260506182056 16 271 0.0 3.2 0.43 0.43 0.43 92 1005.5
20260506181556 16 275 0.0 3.2 0.41 0.41 0.41 92 1005.7
20260506181056 16 219 0.0 3.2 0.33 0.33 0.33 91 1005.7
20260506180557 17 212 0.0 3.2 0.25 0.25 0.25 91 1005.7
20260506180104 17 169 0.0 0.0 0.20 0.20 0.20 91 1005.6
20260506175554 17 169 0.0 0.0 0.18 0.18 0.18 90 1005.7
20260506175058 17 169 0.0 1.6 0.15 0.15 0.15 89 1005.9
20260506174556 17 169 0.0 3.2 0.15 0.15 0.15 88 1005.8
20260506174054 17 102 0.0 6.4 0.13 0.13 0.13 86 1005.7
20260506173553 18 213 0.0 6.4 0.08 0.08 0.08 84 1005.9
20260506173058 18 186 0.0 4.8 0.05 0.05 0.05 82 1005.8
20260506172552 19 130 1.6 6.4 0.03 0.03 0.03 78 1005.5
20260506172052 20 202 1.6 6.4 0.00 0.00 0.00 73 1005.5
20260506171557 20 211 1.6 8.0 0.00 0.00 0.00 68 1005.4
20260506171054 21 144 0.0 11.3 0.00 0.00 0.00 66 1005.2
20260506170552 21 206 1.6 11.3 0.00 0.00 0.00 64 1005.4
20260506170103 21 223 4.8 12.9 0.00 0.00 0.00 63 1005.4
20260506165551 21 245 3.2 12.9 0.00 0.00 0.00 63 1005.4
20260506165051 21 211 3.2 12.9 0.00 0.00 0.00 62 1005.6
20260506164551 21 238 1.6 6.4 0.00 0.00 0.00 63 1005.6
20260506164053 21 236 1.6 8.0 0.00 0.00 0.00 63 1005.6
20260506163549 21 244 1.6 8.0 0.00 0.00 0.00 63 1005.7
20260506163109 21 230 1.6 8.0 0.00 0.00 0.00 63 1005.7
20260506162546 21 215 3.2 8.0 0.00 0.00 0.00 64 1005.8
20260506162048 21 173 1.6 12.9 0.00 0.00 0.00 64 1005.9
20260506161546 21 168 4.8 12.9 0.00 0.00 0.00 64 1006.0
20260506161044 21 200 3.2 11.3 0.00 0.00 0.00 65 1006.0
20260506160544 21 227 6.4 11.3 0.00 0.00 0.00 65 1006.2
20260506160042 21 169 3.2 8.0 0.00 0.00 0.00 66 1006.3
20260506155543 21 181 1.6 9.7 0.00 0.00 0.00 66 1006.5
20260506155040 21 237 0.0 14.5 0.00 0.00 0.00 66 1006.6
20260506154553 20 197 4.8 12.9 0.00 0.00 0.00 67 1006.7
20260506154038 20 278 6.4 12.9 0.00 0.00 0.00 67 1006.8
20260506153537 20 195 4.8 8.0 0.00 0.00 0.00 67 1006.9
20260506153048 20 219 1.6 8.0 0.00 0.00 0.00 66 1006.8
20260506152537 20 171 1.6 11.3 0.00 0.00 0.00 68 1007.1